www.pogodaiklimat.ru

Погода и климат >> Архив погоды >> Ирак >> Ubaydah Bin Al Jarrah


ПОГОДА в Ubaydah Bin Al Jarrah

  • Прогноз погоды в Ubaydah Bin Al Jarrah
  • Монитор погоды в Ubaydah Bin Al Jarrah
  • Климат города

АРХИВ ПОГОДЫ в Ubaydah Bin Al Jarrah

Время (UTC), дата Ветер
(напр.,м/с)
 
Видим.   Явления Облачность Т
(С)
Тd
(С)
f
(%)
Тe
(С)
Тes
(С)
Комфортность P
(гПа)
Po
(гПа)
Тmin
(С)
Tmax
(С)
R
(мм)
R24
(мм)
S
(см)
18 11.12 штиль 0 10 км ясно +14.2 +12.7 91 +14 +14 1022.1 1022.0 +20.0
21 11.12 штиль 0 6000 м дымка ясно +12.6 +11.4 92 +12 +12 1022.1 1022.0
00 12.12 штиль 0 6000 м дымка ясно +12.0 +11.2 95 +11 +11 1021.8 1022.0
03 12.12 штиль 0 3000 м дымка ясно +10.8 +10.0 95 +10 +10 1021.6 1022.0
06 12.12 ЮЗ 2 6000 м дымка ясно +14.0 +11.3 84 +13 +16 1023.1 1023.0 +10.0
09 12.12 З 2 6000 м мгла ясно +19.6 +12.0 61 +22 +29 комфорт 1021.9 1022.0
12 12.12 штиль 0 10 км ясно +21.0 +12.1 57 +23 +26 комфорт 1020.4 1020.0
15 12.12 штиль 0 10 км ясно +17.8 +12.0 69 +18 +18 1020.4 1020.0
18 12.12 З 2 10 км ясно +15.8 +12.1 79 +16 +16 1020.5 1021.0 +22.0
21 12.12 штиль 0 10 км ясно +15.0 +12.0 82 +15 +15 1020.6 1021.0
00 13.12 В 2 10 км ясно +13.2 +10.9 86 +12 +12 1020.6 1021.0
03 13.12 штиль 0 4000 м дымка ясно +12.8 +10.9 88 +12 +12 1021.2 1021.0
06 13.12 В 3 4000 м дымка ясно +15.0 +11.2 78 +14 +16 1022.2 1022.0 +12.5
09 13.12 ЮВ 4 10 км ясно +19.6 +11.6 60 +21 +26 комфорт 1021.1 1021.0
12 13.12 Ю 2 10 км ясно +21.2 +12.7 58 +23 +26 комфорт 1020.9 1021.0
15 13.12 штиль 0 10 км ясно +18.0 +14.1 78 +18 +18 1021.6 1022.0
18 13.12 штиль 0 10 км ясно +16.4 +13.5 83 +16 +16 1022.2 1022.0 +21.6
21 13.12 штиль 0 6000 м дымка ясно +13.8 +12.7 93 +13 +13 1022.2 1022.0
00 14.12 штиль 0 10 км ясно +13.6 +12.5 93 +13 +13 1022.7 1023.0
03 14.12 штиль 0 6000 м дымка ясно +11.6 +10.4 92 +11 +11 1022.7 1023.0
06 14.12 штиль 0 100 м туман ?/? +10.8 +10.8 100 +10 +10 1024.5 1025.0 +10.5
09 14.12 штиль 0 8000 м дымка {туман} ясно +16.6 +13.4 81 +16 +26 1025.4 1025.0
12 14.12 С 4 6000 м дымка {туман} 5/5 900 м
[Cu med, cong]
+17.7 +14.9 84 +17 +18 1024.7 1025.0
15 14.12 С 3 10 км ясно +15.6 +10.9 74 +15 +15 1025.4 1025.0
18 14.12 С 3 10 км ясно +13.0 +9.0 77 +12 +12 1025.8 1026.0 +18.6
21 14.12 СЗ 4 10 км ясно +11.4 +8.1 80 +9 +9 1025.2 1025.0
00 15.12 СЗ 3 10 км ясно +10.6 +6.7 77 +9 +9 1024.8 1025.0
03 15.12 СЗ 3 10 км ясно +9.4 +5.9 79 +7 +7 1025.2 1025.0
06 15.12 СЗ 6 10 км ясно +11.6 +5.5 66 +9 +10 1026.3 1026.0 +9.0
12 15.12 СЗ 10 10 км ясно +17.0 +4.8 44 +15 +16 1024.4 1024.0
15 15.12 СЗ 2 10 км ясно +13.8 +5.7 58 +13 +13 1024.5 1025.0
18 15.12 СЗ 2 10 км ясно +11.6 +7.4 75 +11 +11 1024.9 1025.0 +17.5
21 15.12 СЗ 3 10 км ясно +10.6 +6.7 77 +9 +9 1024.7 1025.0
00 16.12 СЗ 3 10 км ясно +9.4 +6.3 81 +7 +7 1024.8 1025.0
06 16.12 СЗ 2 10 км ясно +9.6 +6.1 79 +8 +11 1026.1 1026.0 +7.4
09 16.12 СЗ 2 10 км 4/0
[Ci fib]
+15.0 +8.2 64 +15 +21 1026.1 1026.0
12 16.12 С 3 10 км 9/0
[Cs]
+17.0 +9.7 62 +17 +18 1024.7 1025.0
15 16.12 штиль 0 10 км 10/0
[Cs]
+14.4 +11.2 81 +14 +14 1024.7 1025.0
18 16.12 штиль 0 6000 м 4/0
[Ci fib]
+11.8 +8.5 80 +11 +11 1024.8 1025.0 +17.4
21 16.12 штиль 0 6000 м дымка 6/0
[Ac trans Ci fib]
+11.4 +9.8 90 +11 +11 1024.1 1024.0
00 17.12 штиль 0 6000 м дымка 10/0
[As op]
+11.4 +10.0 91 +11 +11 1023.8 1024.0
06 17.12 штиль 0 2000 м в посл. час ливневой дождь 10/4 1050 м
[Cu hum As op]
+12.6 +11.0 90 +12 +12 1022.4 1022.0 +10.4 0.7
09 17.12 ЮВ 6 3000 м дымка 10/3 1050 м
[Cu hum As op]
+14.6 +10.8 78 +13 +13 1019.3 1019.0
12 17.12 В 6 3000 м в посл. час ливневой дождь 10/3 900 м
[Cu med, cong As op]
+14.8 +9.8 72 +13 +13 1016.8 1017.0
15 17.12 ЮВ 4 5000 м осадки на расстоянии 10/3 900 м
[Cu med, cong As op]
+15.4 +7.3 58 +15 +15 1017.5 1018.0
18 17.12 В 7 10 км 10/4 1050 м
[Cu med, cong As op]
+8.8 +6.0 83 +5 -2 1017.8 1018.0 +15.5 0.4
21 17.12 ЮВ 8 10 км 10/0 1000 м
[As op]
+5.0 +10.8 100 -1 -1 1018.4 1018.0
00 18.12 В 10 10 км 10/0
[As op]
+14.0 +10.9 82 +11 +11 1018.9 1019.0
06 18.12 ЮВ 8 10 км 10/0
[As op]
+13.4 +9.9 79 +11 +11 1023.1 1023.0 +12.5
12 18.12 штиль 0 3000 м в посл. час дождь 10/5 1050 м
[Cu Sc As op]
+14.6 +13.1 91 +14 +15 1022.6 1023.0
15 18.12 штиль 0 4000 м дымка 10/5 1050 м
[Cu Sc As op]
+14.5 +12.8 90 +14 +14 1023.6 1024.0

 

Местоположение метеостанции Ubaydah Bin Al Jarrah (Ирак): широта 32.49 долгота 45.75 высота над уровнем моря 21 м.

В архиве по умолчанию представлена погода в Ubaydah Bin Al Jarrah за последнюю неделю. Архивные данные за месяц целиком и за предыдущие месяцы, начиная с января 2011 года, Вы можете получить, выбрав интересующий диапазон дат из раскрывающегося списка и нажав кнопку "Ввод!".


*Определитесь, кто Вы:
робот инопланетянин человек

Внимание! Время в таблицах - всемирное. Для получения местного времени необходимо прибавить поправку, которая в Ubaydah Bin Al Jarrah равна 3 ч.

Смотрите также архив погоды в соседних городах и на ближайших метеорологических станциях:

Погода в Kut-Al-Hai (Ирак) (45 км)
Погода в Badrah (Ирак) (70 км)
Погода в Azizyah (Ирак) (80 км)
Погода в Ali Al-Gharbi (Ирак) (91 км)
Погода в Rifai (Ирак) (92 км)
Погода в Diwaniya (Ирак) (92 км)
Погода в Hella (Ирак) (122 км)
Погода в Samawah (Ирак) (140 км)
Погода в Ilam (Иран) (142 км)
Погода в Najaf (Ирак) (146 км)

Пояснения к столбцам:

Ветер - указаны скорость ветра в м/с - средняя за 10 мин, порывы в срок и между сроками (в фигурных скобках) и направление, откуда дует ветер: С - северный, СВ - северо-восточный, В - восточный, ЮВ - юго-восточный, Ю - южный, ЮЗ - юго-западный, З - западный, СЗ - северо-западный.
Видимость - горизонтальная дальность видимости в метрах или километрах. При видимости от 1 до 10 км при отсутствии осадков обычно наблюдается дымка, при ухудшении видимости до 1 км и менее - туман. В сухую погоду видимость может ухудшаться дымом, пылью или мглою.
Явления - указаны атмосферные явления, наблюдавшиеся в срок или в последний час перед сроком; фигурными скобками обозначены явления, наблюдавшиеся между сроками (за 1-3 часа до срока); квадратными скобками обозначены град или гололедные отложения с указанием их диаметра в мм.
Облачность - указаны через наклонную черту общая и нижняя облачность в баллах и высота нижней границы облаков в метрах; квадратными скобками обозначены формы облаков: Ci - перистые, Cs - перисто-слоистые, Cc - перисто-кучевые, Ac - высококучевые, As - высокослоистые, Sc - слоисто-кучевые, Ns - слоисто-дождевые, Cu - кучевые, Cb - кучево-дождевые. Подробнее классификацию облаков см. в Атласе облаков (PDF).
T - Температура воздуха - температура, измеренная на высоте 2 м над землей.
Td - Температура точки росы - температура, при понижении до которой содержащийся в воздухе водяной пар достигнет насыщения.
f - Относительная влажность воздуха - влажноcть воздуха, измеренная на высоте 2 м над землей.
Te - Эффективная температура - температура, которую ощущает одетый по сезону человек в тени. Характеристика душности погоды. При расчете учитывается влияние влажности воздуха и скорости ветра на теплоощущения человека.
Tes - Эффективная температура на солнце - температура, которую ощущает человек, с поправкой на солнечный нагрев. Характеристика знойности погоды. Зависит от высоты солнца над горизонтом, облачности и скорости ветра. Ночью, в пасмурную погоду, а также при ветре 12 м/с и более поправка равна нулю.
P - Атмосферное давление - приведенное к уровню моря атмосферное давление.
Po - Атмосферное давление - измеренное на уровне метеостанции атмосферное давление.
Tmin - Минимальная температура - минимум температуры воздуха на высоте 2 м над землей.
Tmax - Максимальная температура - максимум температуры воздуха на высоте 2 м над землей.
R - Количество осадков - Количество выпавших осадков за период времени, мм. При наведении курсора мыши на число - период времени, за который выпало указанное количество осадков.
R24 - Количество осадков - Количество выпавших осадков за 24 часа, мм.
S - Снежный покров - Высота снежного покрова, см. При наведении курсора мыши на число - состояние снежного покрова и степень покрытия местности в баллах.